sat.trackr.live / text

‹ back to catalog

STARLINK-31387

NORAD 59407 · 2024-064K

PAYLOAD ACTIVE UNKNOWN

§ Identity

Operator
Country
US
Launch date
2024-04-05
Launch site
AFETR
Launch vehicle
Mass (kg)
RCS (m²)

Purposes: comms

External: N2YO · Heavens-Above · Gunter

§ Orbital elements

Epoch: 2026-09-21T15:47:40.039584Z

Period
94.27 min
Inclination
43.0036°
Eccentricity
0.0001096
Mean motion
15.27581989 rev/d
Perigee alt
482.3 km
Apogee alt
483.8 km
Semi-major
6,861.2 km
B*
2.0251e-5
RAAN
29.7023°
Arg perigee
268.5146°
Mean anomaly
91.5580°
Rev number
13,919

§ Raw data

STARLINK-313871 59407U 24064K   26264.65810231  .00000295  00000+0  20251-4 0  99962 59407  43.0036  29.7023 0001096 268.5146  91.5580 15.27581989139190

JSON: /api/v1/satellites/59407 · /tle

For live sub-satellite position, see the globe view (requires WebGL).

§ Visibility from observer

Set your observer location to see the next 7 days of passes ≥ 10°. The values pass through the URL so the page stays shareable.

No JS? Fill the form by hand. The geolocation button needs JavaScript.